User: anonymous
Location: Albany
(35.0000°S, 118.0000°E)
Time: 14:34:18
(UTC-04:00)
Language:

Radarsat Rocket - Orbit

View from above orbital plane
View from above orbital plane
View from above satellite
View from above satellite

Ground track
Ground track

The orbit data is extracted from the following two-line orbital elements,

1 23711U 95059B   14243.49408125  .00000158  00000-0  39405-3 0  7366
2 23711 100.4559 227.6028 0368778 110.2647 049.5240 13.12645943901874
Epoch (UTC): 31 August 2014 11:51:28
Eccentricity: 0.0368778
inclination: 100.4559°
perigee height: 933 km
apogee height: 1493 km
right ascension of ascending node: 227.6028°
argument of perigee: 110.2647°
revolutions per day: 13.12645943
mean anomaly at epoch: 49.5240°
orbit number at epoch: 90187

The dashed part of the orbit path shows where the satellite is in the earth's shadow,  

DLR